Location: Palomar Mountain Lodge
(33.3110°N, 116.8495°W)
Time: 07:44:47
(UTC-07:00)

YAOGAN 6 - Pass Details

Date: 14 June 2018
Orbit: 466 x 507 km, 97.1° (Epoch: 19 September)

Event Time Altitude Azimuth Distance (km) Brightness Sun altitude
Rises 20:58:44 0° 188° (S) 2,544 5.9 -11.4°
Reaches altitude 10° 21:00:58 10° 199° (SSW) 1,660 5.1 -11.8°
Maximum altitude 21:04:09 30° 263° (W) 880 4.3 -12.3°
Drops below altitude 10° 21:07:19 10° 326° (NW) 1,650 6.6 -12.8°
Sets 21:09:32 0° 337° (NNW) 2,526 7.4 -13.2°
